Location: Brabourne
(51.1333°N, 1.0000°E)
Time: 19:04:51
(UTC+00:00)

Cosmos 1825 Rocket - Pass Details

Date: 23 October 2021
Orbit: 604 x 631 km, 82.5° (Epoch: 03 December)

Event Time Altitude Azimuth Distance (km) Brightness Sun altitude
Rises 19:26:59 0° 346° (NNW) 2,880 7.3 -25.7°
Reaches altitude 10° 19:29:14 10° 343° (NNW) 1,968 6.5 -26.0°
Maximum altitude 19:33:29 57° 265° (W) 714 4.0 -26.7°
Enters shadow 19:33:36 57° 257° (WSW) 716 4.0 -26.7°
